User: anonymous   Login
Location: Trebic
(49.2170°N, 15.8830°E)
Time: 03:47:01
(UTC+02:00)
Language:

Vanguard 1 Rocket - Orbit

View from above orbital plane
View from above orbital plane
View from above satellite
View from above satellite

Ground track
Ground track

The orbit data is extracted from the following two-line orbital elements,

1    16U 58002A   19202.85724393 +.00000025 +00000-0 +11063-4 0  9999
2    16 034.2815 032.1260 2026790 279.6014 058.2670 10.48748213424029
Epoch (UTC): 21 July 2019 20:34:25
Eccentricity: 0.2026790
inclination: 34.2815°
perigee height: 651 km
apogee height: 4225 km
right ascension of ascending node: 32.1260°
argument of perigee: 279.6014°
revolutions per day: 10.48748213
mean anomaly at epoch: 58.2670°
orbit number at epoch: 42402

The dashed part of the orbit path shows where the satellite is in the earth's shadow,  

DLR